Location: Le Domaine
(47.0333°N, 76.5361°W)
Time: 09:07:07
(UTC-05:00)

Explorer 11/Cluster Stage 4 - Pass Details

Date: 17 November 2019
Orbit: 467 x 1259 km, 28.8° (Epoch: 12 December)

Event Time Altitude Azimuth Distance (km) Brightness Sun altitude
Rises 22:04:50 0° 233° (SW) 3,617 - -54.7°
Reaches altitude 10° 22:08:16 10° 214° (SW) 2,819 - -55.1°
Maximum altitude 22:12:41 18° 175° (S) 2,449 - -55.6°
Drops below altitude 10° 22:17:29 10° 137° (SE) 3,115 - -56.2°
Sets 22:21:34 0° 120° (ESE) 4,157 - -56.6°
